Location: Goodfare
(55.2420°N, 119.7689°W)
Time: 22:15:24
(UTC+00:00)

ISS - Pass Details

Date: 06 December 2021
Orbit: 413 x 422 km, 51.6° (Epoch: 24 January)

Event Time Altitude Azimuth Distance (km) Brightness Sun altitude
Rises 01:21:54 0° 275° (W) 2,387 1.4 -14.5°
Reaches altitude 10° 01:24:19 10° 259° (W) 1,517 0.5 -14.8°
Maximum altitude 01:26:58 21° 208° (SSW) 1,003 -1.3 -15.2°
Drops below altitude 10° 01:29:37 10° 156° (SSE) 1,507 -1.0 -15.5°
Enters shadow 01:31:01 - 145° (SE) 1,993 -0.5 -15.7°
